AAL1059 KMIA-MYNN

Flight info

Callsign AAL1059
Flight time 0h 31m
Altitude 19000
Route KLADA2 RAJAY
Aircraft B738/M-SDE2E3FGHIRWXY/LB1

Departure

Time 2026-04-30 19:41
Airport Miami International Airport (KMIA)

Arrival

Time 2026-04-30 20:12
Airport Lynden Pindling International Airport (MYNN)
Time Latitude Longitude Altitude Speed Heading
2026-04-30 18:23 25.79827 -80.28370 14 ft 0 kts 177°
2026-04-30 19:30 25.79872 -80.28371 16 ft 4 kts 207°
2026-04-30 19:30 25.79887 -80.28334 14 ft 1 kts 267°
2026-04-30 19:31 25.79887 -80.28332 14 ft 0 kts 267°
2026-04-30 19:35 25.79885 -80.28372 15 ft 11 kts 267°
2026-04-30 19:35 25.79903 -80.28427 15 ft 7 kts 329°
2026-04-30 19:35 25.79946 -80.28469 14 ft 13 kts 286°
2026-04-30 19:36 25.79994 -80.28534 14 ft 12 kts 343°
2026-04-30 19:36 25.80023 -80.28580 14 ft 15 kts 276°
2026-04-30 19:36 25.80019 -80.28722 15 ft 4 kts 267°
2026-04-30 19:37 25.80017 -80.28786 16 ft 18 kts 268°
2026-04-30 19:37 25.80011 -80.28930 15 ft 19 kts 267°
2026-04-30 19:37 25.80005 -80.29072 15 ft 18 kts 267°
2026-04-30 19:37 25.79999 -80.29210 15 ft 17 kts 268°
2026-04-30 19:38 25.79994 -80.29342 14 ft 17 kts 268°
2026-04-30 19:38 25.79989 -80.29469 14 ft 16 kts 267°
2026-04-30 19:38 25.79984 -80.29592 13 ft 16 kts 267°
2026-04-30 19:38 25.79979 -80.29709 13 ft 15 kts 267°
2026-04-30 19:39 25.79974 -80.29822 13 ft 14 kts 267°
2026-04-30 19:39 25.79974 -80.29952 12 ft 21 kts 279°
2026-04-30 19:39 25.79980 -80.29983 12 ft 1 kts 286°
2026-04-30 19:39 25.80004 -80.30069 13 ft 23 kts 287°
2026-04-30 19:40 25.80066 -80.30106 13 ft 14 kts 55°
2026-04-30 19:40 25.80077 -80.29954 12 ft 34 kts 88°
2026-04-30 19:40 25.80097 -80.29415 14 ft 105 kts 87°
2026-04-30 19:40 25.80132 -80.28371 50 ft 159 kts 92°
2026-04-30 19:41 25.80216 -80.27030 466 ft 186 kts 88°
2026-04-30 19:41 25.80237 -80.25624 1408 ft 173 kts 106°
2026-04-30 19:41 25.79740 -80.24397 2018 ft 187 kts 120°
2026-04-30 19:41 25.79093 -80.23001 2262 ft 217 kts 120°
2026-04-30 19:42 25.78366 -80.21421 2519 ft 239 kts 119°
2026-04-30 19:42 25.77598 -80.19752 2971 ft 246 kts 118°
2026-04-30 19:42 25.76803 -80.18028 3455 ft 256 kts 119°
2026-04-30 19:42 25.75964 -80.16292 4138 ft 254 kts 120°
2026-04-30 19:43 25.75100 -80.14554 4720 ft 260 kts 121°
2026-04-30 19:43 25.74227 -80.12795 5363 ft 259 kts 120°
2026-04-30 19:43 25.73357 -80.11029 5927 ft 263 kts 118°
2026-04-30 19:44 25.72011 -80.07237 6977 ft 270 kts 110°
2026-04-30 19:44 25.71382 -80.05260 7496 ft 272 kts 110°
2026-04-30 19:44 25.70744 -80.03264 8000 ft 277 kts 110°
2026-04-30 19:44 25.70078 -80.01203 8307 ft 293 kts 110°
2026-04-30 19:45 25.69369 -79.99030 8756 ft 305 kts 110°
2026-04-30 19:45 25.68642 -79.96814 9568 ft 307 kts 110°
2026-04-30 19:45 25.67906 -79.94582 10270 ft 312 kts 110°
2026-04-30 19:45 25.67133 -79.92245 10532 ft 335 kts 110°
2026-04-30 19:46 25.66303 -79.89742 10703 ft 357 kts 110°
2026-04-30 19:46 25.65421 -79.87087 10980 ft 373 kts 110°
2026-04-30 19:46 25.64513 -79.84358 11534 ft 380 kts 110°
2026-04-30 19:46 25.63596 -79.81600 12167 ft 383 kts 110°
2026-04-30 19:47 25.62669 -79.78820 12834 ft 386 kts 110°
2026-04-30 19:47 25.62052 -79.76965 13243 ft 389 kts 110°
2026-04-30 19:47 25.60788 -79.73177 14036 ft 394 kts 109°
2026-04-30 19:47 25.59833 -79.70315 14621 ft 397 kts 109°
2026-04-30 19:48 25.58952 -79.67397 15204 ft 400 kts 106°
2026-04-30 19:48 25.58180 -79.64476 15777 ft 402 kts 105°
2026-04-30 19:48 25.57430 -79.61483 16357 ft 405 kts 104°
2026-04-30 19:48 25.56680 -79.58462 16921 ft 408 kts 105°
2026-04-30 19:49 25.55919 -79.55422 17465 ft 411 kts 105°
2026-04-30 19:49 25.54361 -79.49307 18652 ft 411 kts 105°
2026-04-30 19:49 25.53574 -79.46254 18913 ft 412 kts 105°
2026-04-30 19:50 25.52784 -79.43208 18946 ft 409 kts 105°
2026-04-30 19:50 25.51994 -79.40171 18961 ft 412 kts 105°
2026-04-30 19:50 25.51197 -79.37113 18970 ft 413 kts 105°
2026-04-30 19:50 25.50401 -79.34063 18975 ft 413 kts 105°
2026-04-30 19:51 25.49602 -79.31002 18972 ft 414 kts 105°
2026-04-30 19:51 25.48802 -79.27943 18972 ft 414 kts 105°
2026-04-30 19:51 25.48003 -79.24885 18967 ft 414 kts 106°
2026-04-30 19:51 25.47200 -79.21818 18966 ft 413 kts 106°
2026-04-30 19:52 25.46401 -79.18768 18969 ft 413 kts 106°
2026-04-30 19:52 25.45601 -79.15717 18965 ft 412 kts 106°
2026-04-30 19:52 25.44802 -79.12672 18970 ft 412 kts 106°
2026-04-30 19:52 25.44002 -79.09626 18965 ft 412 kts 106°
2026-04-30 19:53 25.43202 -79.06584 18966 ft 411 kts 106°
2026-04-30 19:53 25.42411 -79.03579 18967 ft 411 kts 106°
2026-04-30 19:53 25.41611 -79.00540 18971 ft 411 kts 106°
2026-04-30 19:53 25.40810 -78.97502 18971 ft 411 kts 106°
2026-04-30 19:54 25.40008 -78.94464 18965 ft 409 kts 106°
2026-04-30 19:54 25.39224 -78.91498 18961 ft 395 kts 106°
2026-04-30 19:54 25.38466 -78.88630 18960 ft 381 kts 106°
2026-04-30 19:54 25.37724 -78.85826 18960 ft 379 kts 106°
2026-04-30 19:55 25.36983 -78.83025 18950 ft 380 kts 106°
2026-04-30 19:55 25.36237 -78.80209 18673 ft 382 kts 106°
2026-04-30 19:55 25.35503 -78.77441 18365 ft 380 kts 106°
2026-04-30 19:55 25.34758 -78.74636 17968 ft 378 kts 106°
2026-04-30 19:56 25.34019 -78.71855 17564 ft 375 kts 106°
2026-04-30 19:56 25.33286 -78.69100 17166 ft 373 kts 105°
2026-04-30 19:56 25.32554 -78.66345 16780 ft 371 kts 105°
2026-04-30 19:56 25.31828 -78.63621 16401 ft 368 kts 105°
2026-04-30 19:57 25.31106 -78.60910 16034 ft 366 kts 105°
2026-04-30 19:57 25.30390 -78.58226 15655 ft 364 kts 105°
2026-04-30 19:57 25.29671 -78.55530 15286 ft 363 kts 105°
2026-04-30 19:57 25.28960 -78.52867 14912 ft 361 kts 105°
2026-04-30 19:58 25.28256 -78.50236 14534 ft 361 kts 105°
2026-04-30 19:58 25.27544 -78.47575 14155 ft 360 kts 105°
2026-04-30 19:58 25.27091 -78.44880 13741 ft 356 kts 86°
2026-04-30 19:58 25.27312 -78.42170 13308 ft 353 kts 80°
2026-04-30 19:59 25.27644 -78.39487 12904 ft 351 kts 79°
2026-04-30 19:59 25.27983 -78.36827 12530 ft 349 kts 79°
2026-04-30 19:59 25.28633 -78.31494 11447 ft 356 kts 81°
2026-04-30 20:00 25.28948 -78.28778 10975 ft 356 kts 81°
2026-04-30 20:00 25.29256 -78.26074 10580 ft 354 kts 82°
2026-04-30 20:00 25.29557 -78.23414 10417 ft 344 kts 82°
2026-04-30 20:00 25.29849 -78.20827 10256 ft 334 kts 82°
2026-04-30 20:01 25.29669 -78.15879 10026 ft 315 kts 102°
2026-04-30 20:01 25.29193 -78.13550 9959 ft 304 kts 102°
2026-04-30 20:01 25.28721 -78.11303 9792 ft 298 kts 102°
2026-04-30 20:02 25.27779 -78.06746 8849 ft 308 kts 102°
2026-04-30 20:02 25.27313 -78.04447 8531 ft 306 kts 102°
2026-04-30 20:03 25.26394 -77.99875 7910 ft 303 kts 103°
2026-04-30 20:03 25.25942 -77.97613 7602 ft 301 kts 103°
2026-04-30 20:03 25.25492 -77.95355 7335 ft 299 kts 103°
2026-04-30 20:03 25.25053 -77.93155 7265 ft 288 kts 103°
2026-04-30 20:04 25.24630 -77.91033 7188 ft 278 kts 103°
2026-04-30 20:04 25.24218 -77.88966 6989 ft 274 kts 103°
2026-04-30 20:04 25.23808 -77.86914 6726 ft 273 kts 104°
2026-04-30 20:05 25.22992 -77.82834 6211 ft 270 kts 104°
2026-04-30 20:05 25.22594 -77.80844 5942 ft 269 kts 104°
2026-04-30 20:05 25.21921 -77.77488 5480 ft 268 kts 104°
2026-04-30 20:06 25.21518 -77.75479 5203 ft 268 kts 104°
2026-04-30 20:06 25.20978 -77.72787 4622 ft 275 kts 104°
2026-04-30 20:06 25.20558 -77.70698 4095 ft 284 kts 103°
2026-04-30 20:06 25.20123 -77.68535 3557 ft 291 kts 103°
2026-04-30 20:07 25.19825 -77.67052 3203 ft 295 kts 103°
2026-04-30 20:07 25.19377 -77.64824 2673 ft 300 kts 103°
2026-04-30 20:07 25.17318 -77.61069 2066 ft 270 kts 136°
2026-04-30 20:08 25.16044 -77.59675 1983 ft 245 kts 136°
2026-04-30 20:08 25.14901 -77.58410 1988 ft 221 kts 136°
2026-04-30 20:08 25.13887 -77.57278 1986 ft 195 kts 136°
2026-04-30 20:08 25.12987 -77.56274 1962 ft 173 kts 136°
2026-04-30 20:09 25.12154 -77.55345 1925 ft 171 kts 136°
2026-04-30 20:09 25.11320 -77.54415 1729 ft 168 kts 136°
2026-04-30 20:09 25.09770 -77.52687 1285 ft 151 kts 136°
2026-04-30 20:10 25.08285 -77.51028 925 ft 154 kts 135°
2026-04-30 20:10 25.07531 -77.50187 715 ft 155 kts 135°
2026-04-30 20:10 25.06769 -77.49337 515 ft 157 kts 135°
2026-04-30 20:11 25.05235 -77.47623 58 ft 153 kts 137°
2026-04-30 20:11 25.04533 -77.46848 22 ft 127 kts 135°
2026-04-30 20:11 25.04060 -77.46324 19 ft 66 kts 135°
2026-04-30 20:12 25.03759 -77.45947 19 ft 13 kts 69°
2026-04-30 20:12 25.03818 -77.45877 17 ft 12 kts 43°
2026-04-30 20:12 25.03880 -77.45865 16 ft 7 kts 332°
2026-04-30 20:13 25.03924 -77.45915 18 ft 19 kts 315°
2026-04-30 20:13 25.04035 -77.46038 18 ft 23 kts 315°
2026-04-30 20:13 25.04145 -77.46162 16 ft 22 kts 315°
2026-04-30 20:13 25.04253 -77.46282 18 ft 22 kts 315°
2026-04-30 20:14 25.04358 -77.46399 17 ft 21 kts 314°
2026-04-30 20:14 25.04460 -77.46512 17 ft 20 kts 314°
2026-04-30 20:14 25.04558 -77.46623 18 ft 20 kts 314°
2026-04-30 20:14 25.04655 -77.46727 19 ft 19 kts 315°
2026-04-30 20:15 25.04750 -77.46828 17 ft 19 kts 315°
2026-04-30 20:15 25.04838 -77.46927 17 ft 13 kts 315°
2026-04-30 20:15 25.04917 -77.46935 16 ft 13 kts 22°
2026-04-30 20:15 25.04988 -77.46886 16 ft 12 kts 23°
2026-04-30 20:16 25.05021 -77.46884 16 ft 2 kts 351°
2026-04-30 20:16 25.05033 -77.46886 16 ft 1 kts 352°
2026-04-30 20:16 25.05036 -77.46887 16 ft 0 kts 352°